Wetbulb
43.48 43.04 42.39 42.22 43.19 42.96 41.87 41.24 41.19 41.20 39.78 39.33 39.32 38.21 37.90 38.29 38.98 39.03 37.79 37.49 37.31 37.09
44.57 43.86 43.03 42.99 42.35 42.72 41.71 42.23 41.41 39.78 38.54 40.53 39.61 38.18 37.60 37.44 38.00 38.56 38.06 37.63 37.43 37.71
44.05 44.10 43.12 43.46 42.31 42.46 42.22 41.73 41.43 40.34 40.00 38.25 38.00 37.73 37.77 37.26 36.92 36.48 36.31 37.31 37.05 36.88
43.38 43.66 44.19 43.94 42.95 42.34 41.95 41.78 40.64 39.41 39.87 38.20 38.26 37.64 36.48 36.49 36.65 36.44 36.28 35.66 35.55 36.76
43.08 44.98 44.44 43.68 43.06 41.56 41.31 40.85 39.45 38.75 38.61 38.52 38.71 38.08 36.79 36.45 36.79 36.10 34.90 35.06 34.83 34.71
43.15 44.24 43.52 43.57 41.56 40.80 39.02 38.82 38.36 38.06 38.01 38.27 38.43 38.37 38.41 37.24 36.08 34.54 34.96 34.96 33.22 32.80
44.36 44.58 42.02 42.43 40.39 39.68 39.28 39.76 38.44 38.26 38.15 39.05 37.73 38.25 38.36 36.28 34.82 34.65 34.76 35.00 33.31 31.82
44.56 43.76 42.84 40.27 39.32 39.84 39.45 39.19 38.83 38.11 38.60 38.63 38.11 37.70 36.64 35.37 33.26 31.48 31.01 31.19 30.79 29.43
44.45 43.23 41.94 40.71 39.51 37.41 38.14 38.38 38.53 37.87 37.29 36.00 37.38 36.02 36.20 33.46 30.48 31.26 30.15 28.40 27.35 27.47
41.99 39.77 39.07 38.90 38.19 37.80 37.88 37.87 37.46 36.50 36.68 36.48 35.95 35.27 35.16 33.73 29.94 28.96 27.92 27.39 26.76 27.48
39.19 38.13 38.25 38.27 38.19 37.97 37.57 36.69 35.84 35.70 36.35 35.83 35.20 34.85 34.66 32.38 27.55 27.53 28.37 27.63 26.93 25.96
37.57 38.36 38.79 38.42 37.63 37.25 36.82 35.19 34.99 35.73 35.66 34.40 33.05 34.51 33.61 30.40 26.16 27.17 28.06 28.57 27.85 27.26
39.32 38.29 37.69 37.59 36.55 36.27 35.29 34.72 34.22 33.37 33.09 33.35 31.10 33.87 33.78 31.02 25.42 26.43 26.45 26.71 26.46 29.47
39.20 38.38 37.88 37.05 35.32 33.76 32.36 31.17 29.41 29.68 29.96 30.23 30.47 29.68 33.92 33.25 26.50 26.75 26.30 26.40 25.15 25.12
MSLP
1020.61 1021.23 1021.95 1022.56 1023.12 1023.54 1024.22 1024.90 1025.00 1025.27 1025.59 1025.38 1025.26 1025.18 1025.29 1025.47 1025.20 1025.29 1025.66 1025.72 1025.80 1025.73
1021.21 1021.81 1022.38 1022.87 1023.29 1023.88 1024.23 1024.42 1024.88 1024.69 1025.08 1025.01 1024.97 1024.98 1025.09 1025.26 1024.96 1025.01 1025.28 1025.34 1025.37 1025.47
1021.22 1021.77 1022.28 1022.72 1023.15 1023.54 1023.81 1024.24 1024.14 1024.47 1024.37 1024.43 1024.75 1024.87 1024.85 1025.12 1025.10 1025.22 1025.07 1024.96 1025.01 1025.02
1020.83 1021.40 1021.93 1022.31 1022.69 1023.01 1023.35 1023.57 1023.84 1024.19 1024.21 1024.32 1024.64 1024.66 1024.80 1024.90 1024.83 1024.91 1024.93 1024.70 1024.69 1024.91
1020.15 1020.83 1021.37 1021.73 1022.09 1022.44 1022.80 1022.98 1023.44 1023.80 1023.89 1024.10 1024.19 1024.14 1024.38 1024.59 1024.81 1024.77 1024.70 1024.90 1024.94 1024.85
1019.86 1020.25 1020.69 1021.13 1021.59 1022.03 1022.47 1022.93 1023.22 1023.39 1023.42 1023.43 1023.59 1023.87 1024.03 1024.21 1024.45 1024.52 1024.56 1024.68 1024.83 1024.89
1019.33 1019.72 1020.18 1020.62 1021.07 1021.53 1022.04 1022.43 1022.89 1023.01 1022.96 1023.02 1023.10 1023.35 1023.59 1023.88 1024.24 1024.48 1024.51 1024.65 1024.65 1024.65
1018.75 1019.19 1019.73 1020.45 1021.01 1021.61 1021.90 1022.11 1022.36 1022.64 1022.69 1022.70 1022.85 1022.96 1023.29 1023.57 1023.91 1024.31 1024.51 1024.57 1024.48 1024.49
1018.91 1019.50 1020.12 1020.72 1021.51 1021.70 1021.90 1022.05 1022.39 1022.21 1022.15 1022.37 1022.53 1022.63 1022.97 1023.27 1023.53 1023.85 1024.13 1024.35 1024.37 1024.40
1019.53 1020.25 1020.97 1021.25 1021.43 1021.89 1022.83 1022.70 1022.37 1022.15 1022.25 1022.35 1022.43 1022.63 1022.72 1022.96 1023.32 1023.61 1023.81 1024.05 1024.18 1024.19
1019.88 1020.32 1020.97 1021.61 1022.34 1022.79 1022.87 1022.44 1022.38 1022.31 1021.95 1022.09 1022.09 1022.34 1022.60 1023.01 1023.38 1023.53 1023.65 1023.75 1023.83 1023.85
1021.63 1021.67 1021.89 1021.99 1022.39 1022.68 1022.55 1022.33 1022.19 1022.17 1021.88 1021.77 1021.81 1021.95 1022.23 1022.57 1022.90 1023.15 1023.34 1023.41 1023.47 1023.52
1021.56 1022.14 1022.28 1022.49 1022.59 1022.39 1022.16 1022.20 1022.17 1022.17 1021.99 1021.88 1021.76 1021.62 1021.78 1022.07 1022.50 1022.93 1023.11 1023.11 1023.13 1023.03
1022.00 1022.42 1022.53 1022.41 1022.22 1022.15 1022.10 1022.16 1022.15 1022.06 1021.80 1021.57 1021.45 1021.45 1021.41 1021.58 1021.91 1022.22 1022.53 1022.71 1022.77 1022.79
Wind_Speed
8 6 5 5 5 5 4 4 4 4 3 3 3 2 2 2 2 1 2 4 3 3
6 6 6 6 6 5 5 5 4 5 2 1 2 3 3 2 3 1 2 3 4 4
7 7 7 7 7 7 6 5 6 4 4 2 2 3 3 1 1 2 3 3 4 3
9 8 8 7 7 7 6 6 5 5 3 1 2 3 1 4 4 3 3 3 3 4
9 8 8 8 8 7 7 6 6 6 4 3 3 4 4 5 3 4 2 2 1 1
9 9 9 7 8 7 7 6 6 6 6 6 5 4 4 5 4 2 2 3 4 3
10 9 8 7 8 7 6 6 6 6 6 5 5 4 4 5 4 2 2 3 1 2
9 8 6 6 6 6 6 5 4 5 6 5 4 4 6 6 6 5 3 1 2 1
5 6 7 7 6 5 5 5 4 5 5 5 4 7 9 7 6 5 4 3 2 1
9 10 7 6 9 9 5 3 4 5 5 5 6 10 11 10 5 5 4 4 4 3
10 11 10 8 6 2 3 3 4 6 6 5 5 11 9 8 5 4 4 5 5 5
9 8 6 4 2 5 4 3 4 5 6 6 5 12 13 10 6 5 5 4 4 4
6 4 2 2 5 4 3 2 3 5 5 6 6 12 14 10 4 5 3 4 4 6
4 1 3 6 3 2 1 3 4 5 6 6 7 7 16 15 6 6 4 4 4 4
Wind_Direction
122 131 121 133 140 127 109 99 114 93 56 68 64 18 357 298 295 224 241 254 245 257
115 118 127 120 112 113 130 137 134 106 116 55 6 320 347 321 307 232 257 261 252 245
134 134 137 136 138 137 143 155 135 159 167 130 322 330 351 25 12 311 264 253 264 259
152 153 153 152 157 164 162 160 168 191 173 109 305 326 196 244 231 234 247 272 232 205
148 161 168 170 176 167 174 178 181 179 172 208 253 269 243 248 243 205 203 245 204 190
168 169 180 175 173 179 171 178 189 181 203 218 233 259 268 217 214 227 168 209 210 228
177 180 181 182 172 169 171 173 192 216 227 226 221 220 179 154 156 184 145 203 237 248
182 181 169 146 135 156 162 181 204 248 253 240 207 186 178 169 165 161 154 112 115 170
148 118 117 105 107 96 46 20 261 267 254 231 211 198 185 171 174 173 172 196 203 275
99 89 89 92 63 48 351 301 332 321 306 269 222 193 192 181 173 175 177 194 209 241
96 89 81 72 49 313 293 305 307 296 281 265 231 200 194 173 171 182 204 205 214 220
61 64 63 55 335 288 261 274 283 292 295 259 227 183 189 181 187 194 218 221 229 227
84 75 56 278 258 245 264 286 343 324 311 277 243 203 201 191 165 200 210 227 213 214
76 11 258 251 257 256 261 318 312 312 300 283 232 233 212 202 182 203 196 211 204 211